Location: Gairloch Mountain Observatory
(46.1383°N, 60.9640°W)
Time: 23:42:36
(UTC-03:00)

CENTAUR R/B - Visible Passes

Search period start: 25 June 2016 00:00
Search period end: 05 July 2016 00:00
Orbit: 854 x 1334 km, 63.5° (Epoch: 09 June)

Date Brightness Start Highest point End Pass type
(mag) Time Alt. Az. Time Alt. Az. Time Alt. Az.
25 Jun 5.0 01:29:41 10° NNW 01:35:55 28° NNE 01:42:36 10° E visible
25 Jun 3.5 03:20:20 10° NW 03:28:00 69° NE 03:36:15 10° SE visible
25 Jun 5.3 22:48:20 10° WNW 22:53:27 21° N 22:58:59 10° NE visible
26 Jun 5.2 00:41:16 10° NW 00:46:56 23° NNE 00:53:01 10° ENE visible
26 Jun 4.0 02:32:09 10° NW 02:39:31 50° NE 02:47:27 10° ESE visible
26 Jun 3.2 04:22:56 10° NW 04:30:29 54° WSW 04:38:27 10° SSE visible
26 Jun 5.2 21:59:04 10° WNW 22:04:26 25° NNW 22:10:20 10° NNE visible
26 Jun 5.3 23:52:38 10° NW 23:57:52 21° N 00:03:28 10° NE visible
27 Jun 4.4 01:43:57 10° NNW 01:50:52 37° NE 01:58:19 10° E visible
27 Jun 3.1 03:34:34 10° NW 03:42:20 79° SW 03:50:36 10° SSE visible
27 Jun 5.4 23:03:44 10° NW 23:08:45 20° N 23:14:08 10° NE visible
28 Jun 4.8 00:55:42 10° NNW 01:02:04 29° NNE 01:08:54 10° E visible
28 Jun 3.3 02:46:19 10° NW 02:54:03 75° NE 03:02:19 10° SE visible
28 Jun 3.8 04:37:39 10° NW 04:44:23 32° WSW 04:51:24 10° S visible
28 Jun 5.3 22:14:35 10° WNW 22:19:38 21° N 22:25:07 10° NE visible
29 Jun 5.1 00:07:19 10° NW 00:13:07 24° NNE 00:19:20 10° ENE visible
29 Jun 3.8 01:58:08 10° NW 02:05:35 54° NE 02:13:37 10° ESE visible
29 Jun 3.3 03:48:59 10° NW 03:56:26 49° WSW 04:04:16 10° S visible
29 Jun 5.2 23:18:45 10° NW 23:24:04 21° N 23:29:46 10° ENE visible
30 Jun 4.3 01:09:56 10° NNW 01:16:58 40° NE 01:24:33 10° ESE visible
30 Jun 3.0 03:00:35 10° NW 03:08:20 72° WSW 03:16:34 10° SSE visible
30 Jun 5.3 22:29:55 10° NW 22:34:57 20° N 22:40:22 10° NE visible
01 Jul 4.6 00:21:43 10° NNW 00:28:13 31° NNE 00:35:11 10° E visible
01 Jul 3.2 02:12:18 10° NW 02:20:04 81° NE 02:28:22 10° SE visible
01 Jul 3.9 04:03:48 10° NW 04:10:17 29° WSW 04:17:01 10° SSW visible
01 Jul 5.2 21:40:49 10° NW 21:45:50 21° N 21:51:16 10° NE visible
01 Jul 4.9 23:33:22 10° NNW 23:39:17 25° NNE 23:45:39 10° ENE visible
02 Jul 3.6 01:24:06 10° NW 01:31:39 58° NE 01:39:45 10° ESE visible
02 Jul 3.4 03:15:04 10° NW 03:22:23 44° WSW 03:30:03 10° S visible
02 Jul 5.1 22:44:50 10° NW 22:50:15 22° NNE 22:56:04 10° ENE visible
03 Jul 4.1 00:35:55 10° NNW 00:43:05 43° NE 00:50:46 10° ESE visible
03 Jul 3.1 02:26:36 10° NW 02:34:18 66° WSW 02:42:03 12° SSE visible
03 Jul 4.5 04:19:38 10° WNW 04:23:53 15° WSW 04:28:13 10° SW visible
03 Jul 5.2 21:56:04 10° NW 22:01:10 20° N 22:06:37 10° NE visible
03 Jul 4.5 23:47:43 10° NNW 23:54:21 33° NNE 00:01:29 10° E visible
04 Jul 3.1 01:38:18 10° NW 01:46:05 87° NE 01:53:36 13° SE visible
04 Jul 4.0 03:30:00 10° WNW 03:36:10 26° WSW 03:40:40 16° SSW visible
04 Jul 4.8 22:59:24 10° NNW 23:05:28 26° NNE 23:11:58 10° ENE visible
